Date String (YYYY-MM-DD hh:mm:ss) UTC,Instrument flags,Ambient pressure (hPa),Sample flow (lpm),Bypass flow (lpm),Sample temperature (°C),Ambient temperature (°C),ASC tube jacket temperature (°C),LED temperature (°C),Box temperature (°C),Sample RH (%),Span deviation,Mass concentration (μg/m³),Mass concentration (μg/m³),Mass concentration (μg/m³)
DateTimeUTC,F1_M11,P_M11,Q1_M11,Q2_M11,T1_M11,T2_M11,T3_M11,T4_M11,T5_M11,U1_M11,ZSPAN_M11,X2_M11,X0_M11,X1_M11
2021-11-19 04:00:00,,0826.9,5.01,0.00,23.0,22.2,00.0,32.2,24.7,08.8,0000.0,0007.71,0025.64,0005.79
2021-11-19 04:01:00,,0826.7,4.99,0.00,23.0,22.2,00.0,32.2,24.7,08.7,0000.0,0007.70,0024.93,0005.80
2021-11-19 04:02:00,,0826.6,4.99,0.00,23.0,22.2,00.0,32.2,24.8,08.7,0000.0,0007.72,0024.89,0005.83
2021-11-19 04:03:00,,0826.6,5.01,0.00,23.0,22.2,00.0,32.1,24.8,08.7,0000.0,0007.77,0025.86,0005.84
2021-11-19 04:04:00,,0826.5,4.99,0.00,23.0,22.2,00.0,32.1,24.8,08.7,0000.0,0007.83,0026.02,0005.86
2021-11-19 04:05:00,,0826.6,5.01,0.00,23.0,22.2,00.0,32.1,24.8,08.7,0000.0,0007.94,0028.16,0005.89
2021-11-19 04:06:00,,0826.6,4.99,0.00,23.1,22.3,00.0,32.1,24.9,08.7,0000.0,0007.99,0026.51,0005.94
2021-11-19 04:07:00,,0826.6,5.00,0.00,23.1,22.3,00.0,32.1,24.9,08.7,0000.0,0007.96,0026.17,0005.95
2021-11-19 04:08:00,,0826.6,5.01,0.00,23.1,22.3,00.0,32.1,24.9,08.7,0000.0,0007.96,0025.72,0005.98
2021-11-19 04:09:00,,0826.8,4.99,0.00,23.1,22.3,00.0,32.1,24.9,08.7,0000.0,0007.97,0025.56,0005.97
2021-11-19 04:10:00,,0826.8,5.00,0.00,23.0,22.3,00.0,32.1,24.8,08.8,0000.0,0008.04,0026.06,0005.98
2021-11-19 04:11:00,,0826.7,4.99,0.00,23.0,22.3,00.0,32.1,24.8,08.8,0000.0,0008.10,0026.52,0006.01
2021-11-19 04:12:00,,0826.8,5.01,0.00,23.0,22.2,00.0,32.1,24.7,08.8,0000.0,0008.06,0026.40,0006.05
2021-11-19 04:13:00,,0826.7,4.99,0.00,23.0,22.2,00.0,32.1,24.7,08.8,0000.0,0008.06,0027.02,0006.08
2021-11-19 04:14:00,,0826.6,5.01,0.00,22.9,22.1,00.0,32.1,24.7,08.8,0000.0,0007.99,0027.06,0006.10
2021-11-19 04:15:00,,0826.6,4.99,0.00,22.9,22.1,00.0,32.0,24.6,08.9,0000.9,0008.05,0026.52,0006.12
2021-11-19 04:16:00,,0826.5,5.01,0.00,22.9,22.1,00.0,32.0,24.7,08.9,0000.0,0008.03,0024.61,0006.14
2021-11-19 04:17:00,,0826.5,5.00,0.00,22.9,22.1,00.0,32.0,24.7,08.9,0001.2,0008.10,0025.37,0006.16
2021-11-19 04:18:00,,0826.5,5.01,0.00,22.9,22.1,00.0,32.0,24.7,08.9,0002.1,0008.20,0025.42,0006.19
2021-11-19 04:19:00,,0826.5,4.99,0.00,22.9,22.2,00.0,32.0,24.8,08.8,0000.8,0008.35,0025.66,0006.23
2021-11-19 04:20:00,,0826.5,5.01,0.00,22.9,22.2,00.0,32.0,24.8,08.8,0000.8,0008.45,0026.11,0006.28
2021-11-19 04:21:00,,0826.4,4.99,0.00,23.0,22.2,00.0,32.0,24.8,08.8,0001.3,0008.42,0026.33,0006.30
2021-11-19 04:22:00,,0826.5,5.01,0.00,23.0,22.2,00.0,32.0,24.8,08.8,0001.3,0008.36,0027.78,0006.29
2021-11-19 04:23:00,,0826.6,4.99,0.00,23.0,22.2,00.0,32.0,24.8,08.8,0002.2,0008.34,0028.15,0006.26
2021-11-19 04:24:00,,0826.7,5.00,0.00,23.0,22.2,00.0,32.0,24.8,08.8,0002.6,0008.31,0027.57,0006.25
2021-11-19 04:25:00,,0826.7,5.01,0.00,23.0,22.2,00.0,32.0,24.8,08.8,0002.9,0008.38,0028.01,0006.26
2021-11-19 04:26:00,,0826.6,5.02,0.00,23.0,22.2,00.0,32.0,24.8,08.7,0003.7,0008.40,0028.33,0006.25
2021-11-19 04:27:00,,0826.5,5.00,0.00,23.0,22.2,00.0,32.0,24.8,08.7,0003.7,0008.37,0028.27,0006.23
2021-11-19 04:28:00,,0826.5,4.99,0.00,23.0,22.2,00.0,32.0,24.8,08.8,0003.9,0008.29,0028.48,0006.19
2021-11-19 04:29:00,,0826.5,5.00,0.00,23.0,22.2,00.0,32.0,24.8,08.8,0003.6,0008.21,0028.85,0006.16
2021-11-19 04:30:00,,0826.6,5.00,0.00,23.0,22.2,00.0,32.0,24.8,08.8,0004.1,0008.05,0028.29,0006.11
2021-11-19 04:31:00,,0826.7,4.99,0.00,23.0,22.2,00.0,32.0,24.8,08.8,0004.7,0007.98,0027.49,0006.09
2021-11-19 04:32:00,,0826.6,5.00,0.00,23.0,22.2,00.0,32.0,24.8,08.8,0004.8,0008.01,0027.21,0006.07
2021-11-19 04:33:00,,0826.6,5.00,0.00,23.0,22.3,00.0,32.0,24.8,08.8,0004.4,0008.06,0026.62,0006.07
2021-11-19 04:34:00,,0826.5,5.01,0.00,23.0,22.3,00.0,32.0,24.8,08.8,0004.6,0008.12,0027.31,0006.07
2021-11-19 04:35:00,,0826.4,5.00,0.00,23.0,22.3,00.0,32.0,24.8,08.8,0004.9,0008.14,0028.01,0006.04
2021-11-19 04:36:00,,0826.4,5.01,0.00,23.0,22.3,00.0,32.0,24.8,08.8,0004.9,0008.05,0026.41,0005.99
2021-11-19 04:37:00,,0826.4,4.99,0.00,23.0,22.3,00.0,32.0,24.8,08.8,0004.8,0007.94,0024.80,0005.95
2021-11-19 04:38:00,,0826.5,5.00,0.00,23.0,22.3,00.0,32.0,24.8,08.8,0004.9,0007.85,0024.48,0005.92
2021-11-19 04:39:00,,0826.5,4.99,0.00,23.0,22.3,00.0,32.0,24.8,08.8,0000.7,0007.84,0024.76,0005.90
2021-11-19 04:40:00,,0826.5,5.01,0.00,23.0,22.2,00.0,32.0,24.7,08.8,0000.0,0007.74,0024.10,0005.86
2021-11-19 04:41:00,,0826.4,5.00,0.00,22.9,22.1,00.0,32.0,24.6,08.9,0000.0,0007.71,0024.41,0005.83
2021-11-19 04:42:00,,0826.2,4.99,0.00,22.9,22.0,00.0,32.0,24.6,08.9,0000.0,0007.65,0025.56,0005.79
2021-11-19 04:43:00,,0826.1,5.01,0.00,22.8,22.0,00.0,32.0,24.5,09.0,0000.0,0007.59,0026.17,0005.74
2021-11-19 04:44:00,,0826.2,4.99,0.00,22.8,22.0,00.0,31.9,24.6,09.0,0000.0,0007.52,0024.84,0005.71
2021-11-19 04:45:00,,0826.5,5.01,0.00,22.8,22.0,00.0,31.9,24.6,08.9,0000.0,0007.45,0025.73,0005.68
2021-11-19 04:46:00,,0826.4,4.99,0.00,22.8,22.1,00.0,31.9,24.6,08.9,0000.0,0007.34,0024.74,0005.66
2021-11-19 04:47:00,,0826.3,5.00,0.00,22.8,22.0,00.0,31.9,24.6,08.9,0000.0,0007.34,0025.67,0005.68
2021-11-19 04:48:00,,0826.2,5.00,0.00,22.8,22.0,00.0,31.9,24.5,08.9,0000.0,0007.41,0027.11,0005.69
2021-11-19 04:49:00,,0826.2,5.00,0.00,22.8,21.9,00.0,31.9,24.5,08.9,0000.0,0007.48,0028.80,0005.72
2021-11-19 04:50:00,,0826.2,4.99,0.00,22.7,22.0,00.0,31.9,24.5,08.9,0000.0,0007.54,0028.42,0005.75
2021-11-19 04:51:00,,0826.2,5.01,0.00,22.7,22.0,00.0,31.9,24.5,08.9,0000.0,0007.65,0028.44,0005.78
2021-11-19 04:52:00,,0826.1,5.00,0.00,22.7,22.0,00.0,31.8,24.5,08.9,0000.0,0007.72,0028.24,0005.80
2021-11-19 04:53:00,,0826.2,5.00,0.00,22.8,22.0,00.0,31.8,24.6,08.9,0000.0,0007.70,0028.04,0005.82
2021-11-19 04:54:00,,0826.2,4.99,0.00,22.7,22.0,00.0,31.8,24.5,08.9,0000.0,0007.77,0027.35,0005.84
2021-11-19 04:55:00,,0826.1,5.01,0.00,22.7,21.9,00.0,31.8,24.5,09.0,0000.0,0007.85,0029.69,0005.85
2021-11-19 04:56:00,,0826.1,5.00,0.00,22.7,21.9,00.0,31.8,24.4,09.0,0000.0,0007.91,0028.83,0005.88
2021-11-19 04:57:00,,0826.0,5.01,0.00,22.7,21.9,00.0,31.8,24.4,09.0,0000.0,0008.10,0029.10,0005.92
2021-11-19 04:58:00,,0826.1,5.00,0.00,22.6,21.8,00.0,31.8,24.3,09.0,0000.0,0008.16,0029.20,0005.96
2021-11-19 04:59:00,,0826.0,5.00,0.00,22.6,21.8,00.0,31.8,24.3,09.0,0000.0,0008.19,0028.53,0005.99
